Time,TemperatureF,DewpointF,PressureIn,WindDirection,WindDirectionDegrees,WindSpeedMPH,WindSpeedGustMPH,Humidity,HourlyPrecipIn,Conditions,Clouds,dailyrainin,SoftwareType,DateUTC
2013-01-03 00:00:00,19.7,7.3,30.43,NW,323,5.0,12.0,58,0.00,,---,0.00,VWS V13.01,2013-01-03 07:00:00,
2013-01-03 00:04:00,19.7,7.3,30.41,NW,325,5.0,14.0,58,0.00,,---,0.00,VWS V13.01,2013-01-03 07:04:00,
2013-01-03 00:09:00,19.9,7.5,30.41,NW,323,6.0,14.0,58,0.00,,---,0.00,VWS V13.01,2013-01-03 07:09:00,
2013-01-03 00:14:00,20.0,7.6,30.40,NW,310,12.0,14.0,58,0.00,,---,0.00,VWS V13.01,2013-01-03 07:14:00,
2013-01-03 00:15:00,20.0,7.6,30.40,NNW,336,8.0,14.0,58,0.00,,---,0.00,VWS V13.01,2013-01-03 07:15:00,
2013-01-03 00:19:00,20.1,7.7,30.40,NW,322,5.0,12.0,58,0.00,,---,0.00,VWS V13.01,2013-01-03 07:19:00,
2013-01-03 00:24:00,20.0,7.6,30.41,NW,320,5.0,12.0,58,0.00,,---,0.00,VWS V13.01,2013-01-03 07:24:00,
2013-01-03 00:29:00,19.8,7.4,30.41,NW,319,2.0,12.0,58,0.00,,---,0.00,VWS V13.01,2013-01-03 07:29:00,
2013-01-03 00:30:00,19.8,7.4,30.41,NW,319,2.0,12.0,58,0.00,,---,0.00,VWS V13.01,2013-01-03 07:30:00,
2013-01-03 00:34:00,19.8,7.8,30.40,NW,323,4.0,8.0,59,0.00,,---,0.00,VWS V13.01,2013-01-03 07:34:00,
2013-01-03 00:39:00,19.9,7.9,30.41,NW,320,6.0,8.0,59,0.00,,---,0.00,VWS V13.01,2013-01-03 07:39:00,
2013-01-03 00:44:00,20.0,8.0,30.41,NW,315,7.0,9.0,59,0.00,,---,0.00,VWS V13.01,2013-01-03 07:44:00,
2013-01-03 00:45:00,20.0,8.0,30.41,NW,310,6.0,9.0,59,0.00,,---,0.00,VWS V13.01,2013-01-03 07:45:00,
2013-01-03 00:49:00,20.0,8.0,30.41,NNW,329,5.0,9.0,59,0.00,,---,0.00,VWS V13.01,2013-01-03 07:49:00,
2013-01-03 00:54:00,20.0,8.0,30.41,NNW,328,4.0,9.0,59,0.00,,---,0.00,VWS V13.01,2013-01-03 07:54:00,
2013-01-03 00:59:00,20.0,8.4,30.41,NW,321,2.0,9.0,60,0.00,,---,0.00,VWS V13.01,2013-01-03 07:59:00,
2013-01-03 01:00:00,20.0,8.4,30.41,NW,321,4.0,9.0,60,0.00,,---,0.00,VWS V13.01,2013-01-03 08:00:00,
2013-01-03 01:04:00,20.0,8.4,30.40,NW,319,7.0,10.0,60,0.00,,---,0.00,VWS V13.01,2013-01-03 08:04:00,
2013-01-03 01:09:00,20.1,8.5,30.40,NW,325,7.0,11.0,60,0.00,,---,0.00,VWS V13.01,2013-01-03 08:09:00,
2013-01-03 01:14:00,20.0,8.4,30.40,NW,325,4.0,11.0,60,0.00,,---,0.00,VWS V13.01,2013-01-03 08:14:00,
2013-01-03 01:15:00,20.0,8.4,30.40,NW,325,3.0,11.0,60,0.00,,---,0.00,VWS V13.01,2013-01-03 08:15:00,
2013-01-03 01:19:00,19.9,8.3,30.40,NW,322,4.0,10.0,60,0.00,,---,0.00,VWS V13.01,2013-01-03 08:19:00,
2013-01-03 01:25:00,19.8,8.2,30.40,NW,321,6.0,10.0,60,0.00,,---,0.00,VWS V13.01,2013-01-03 08:25:00,
2013-01-03 01:30:00,19.8,8.5,30.40,NW,323,6.0,11.0,61,0.00,,---,0.00,VWS V13.01,2013-01-03 08:30:00,
2013-01-03 01:35:00,19.8,8.5,30.40,NW,321,7.0,10.0,61,0.00,,---,0.00,VWS V13.01,2013-01-03 08:35:00,
2013-01-03 01:40:00,19.7,8.4,30.41,NNW,330,6.0,10.0,61,0.00,,---,0.00,VWS V13.01,2013-01-03 08:40:00,
2013-01-03 01:45:00,19.7,8.4,30.41,NNW,337,11.0,11.0,61,0.00,,---,0.00,VWS V13.01,2013-01-03 08:45:00,
2013-01-03 01:50:00,19.8,8.9,30.41,NNW,329,5.0,11.0,62,0.00,,---,0.00,VWS V13.01,2013-01-03 08:50:00,
2013-01-03 01:55:00,19.7,8.4,30.42,NNW,327,4.0,11.0,61,0.00,,---,0.00,VWS V13.01,2013-01-03 08:55:00,
2013-01-03 02:00:00,19.5,8.6,30.42,NW,321,5.0,11.0,62,0.00,,---,0.00,VWS V13.01,2013-01-03 09:00:00,
2013-01-03 02:05:00,19.4,8.9,30.43,NW,325,5.0,9.0,63,0.00,,---,0.00,VWS V13.01,2013-01-03 09:05:00,
2013-01-03 02:10:00,19.4,8.9,30.43,NNW,327,3.0,9.0,63,0.00,,---,0.00,VWS V13.01,2013-01-03 09:10:00,
2013-01-03 02:15:00,19.3,9.1,30.44,NNW,331,2.0,9.0,64,0.00,,---,0.00,VWS V13.01,2013-01-03 09:15:00,
2013-01-03 02:20:00,19.3,9.1,30.44,NNW,328,3.0,12.0,64,0.00,,---,0.00,VWS V13.01,2013-01-03 09:20:00,
2013-01-03 02:25:00,19.0,8.8,30.44,NNW,328,4.0,12.0,64,0.00,,---,0.00,VWS V13.01,2013-01-03 09:25:00,
2013-01-03 02:30:00,18.8,9.0,30.44,NNW,328,5.0,12.0,65,0.00,,---,0.00,VWS V13.01,2013-01-03 09:30:00,
2013-01-03 02:35:00,18.6,8.8,30.44,NNW,327,4.0,8.0,65,0.00,,---,0.00,VWS V13.01,2013-01-03 09:35:00,
2013-01-03 02:40:00,18.4,9.0,30.44,NW,326,2.0,8.0,66,0.00,,---,0.00,VWS V13.01,2013-01-03 09:40:00,
2013-01-03 02:45:00,18.2,8.8,30.44,NW,326,1.0,8.0,66,0.00,,---,0.00,VWS V13.01,2013-01-03 09:45:00,
2013-01-03 02:50:00,18.1,9.0,30.45,NW,326,3.0,6.0,67,0.00,,---,0.00,VWS V13.01,2013-01-03 09:50:00,
2013-01-03 02:55:00,18.0,8.9,30.44,NW,326,2.0,6.0,67,0.00,,---,0.00,VWS V13.01,2013-01-03 09:55:00,
2013-01-03 03:00:00,17.9,8.8,30.44,NW,326,3.0,6.0,67,0.00,,---,0.00,VWS V13.01,2013-01-03 10:00:00,
2013-01-03 03:05:00,17.6,8.9,30.44,NW,326,5.0,6.0,68,0.00,,---,0.00,VWS V13.01,2013-01-03 10:05:00,
2013-01-03 03:10:00,17.6,8.9,30.45,NW,326,4.0,7.0,68,0.00,,---,0.00,VWS V13.01,2013-01-03 10:10:00,
2013-01-03 03:15:00,17.6,8.9,30.45,NW,326,4.0,7.0,68,0.00,,---,0.00,VWS V13.01,2013-01-03 10:15:00,
2013-01-03 03:20:00,17.5,8.8,30.44,NW,326,4.0,6.0,68,0.00,,---,0.00,VWS V13.01,2013-01-03 10:20:00,
2013-01-03 03:25:00,17.5,9.1,30.45,NW,321,2.0,7.0,69,0.00,,---,0.00,VWS V13.01,2013-01-03 10:25:00,
2013-01-03 03:30:00,17.4,9.0,30.46,NW,321,2.0,7.0,69,0.00,,---,0.00,VWS V13.01,2013-01-03 10:30:00,
2013-01-03 03:35:00,17.3,8.6,30.46,NW,319,4.0,6.0,68,0.00,,---,0.00,VWS V13.01,2013-01-03 10:35:00,
2013-01-03 03:40:00,17.1,8.4,30.47,NW,318,2.0,6.0,68,0.00,,---,0.00,VWS V13.01,2013-01-03 10:40:00,
2013-01-03 03:45:00,16.9,8.5,30.47,NW,319,1.0,6.0,69,0.00,,---,0.00,VWS V13.01,2013-01-03 10:45:00,
2013-01-03 03:50:00,16.8,8.4,30.46,NW,319,4.0,5.0,69,0.00,,---,0.00,VWS V13.01,2013-01-03 10:50:00,
2013-01-03 03:55:00,16.8,8.1,30.46,North,349,2.0,7.0,68,0.00,,---,0.00,VWS V13.01,2013-01-03 10:55:00,
2013-01-03 04:00:00,16.6,7.9,30.46,NNW,328,3.0,7.0,68,0.00,,---,0.00,VWS V13.01,2013-01-03 11:00:00,
2013-01-03 04:05:00,16.4,7.4,30.50,North,350,3.0,9.0,67,0.00,,---,0.00,VWS V13.01,2013-01-03 11:05:00,
2013-01-03 04:10:00,16.2,7.2,30.50,North,355,3.0,9.0,67,0.00,,---,0.00,VWS V13.01,2013-01-03 11:10:00,
2013-01-03 04:15:00,16.2,7.2,30.50,North,360,1.0,9.0,67,0.00,,---,0.00,VWS V13.01,2013-01-03 11:15:00,
2013-01-03 04:20:00,16.2,7.2,30.49,NNW,341,3.0,6.0,67,0.00,,---,0.00,VWS V13.01,2013-01-03 11:20:00,
2013-01-03 04:25:00,16.2,7.2,30.50,NNE,16,3.0,9.0,67,0.00,,---,0.00,VWS V13.01,2013-01-03 11:25:00,
2013-01-03 04:30:00,16.4,7.4,30.50,North,355,3.0,9.0,67,0.00,,---,0.00,VWS V13.01,2013-01-03 11:30:00,
2013-01-03 04:35:00,16.4,7.4,30.50,North,355,3.0,5.0,67,0.00,,---,0.00,VWS V13.01,2013-01-03 11:35:00,
2013-01-03 04:40:00,16.4,7.0,30.50,North,355,1.0,6.0,66,0.00,,---,0.00,VWS V13.01,2013-01-03 11:40:00,
2013-01-03 04:45:00,16.4,7.0,30.50,North,355,1.0,6.0,66,0.00,,---,0.00,VWS V13.01,2013-01-03 11:45:00,
2013-01-03 04:50:00,16.4,7.0,30.50,North,355,3.0,6.0,66,0.00,,---,0.00,VWS V13.01,2013-01-03 11:50:00,
2013-01-03 04:55:00,16.3,6.6,30.51,North,355,2.0,6.0,65,0.00,,---,0.00,VWS V13.01,2013-01-03 11:55:00,
2013-01-03 05:00:00,16.2,6.2,30.52,North,355,2.0,6.0,64,0.00,,---,0.00,VWS V13.01,2013-01-03 12:00:00,
2013-01-03 05:05:00,16.1,6.1,30.52,North,355,3.0,5.0,64,0.00,,---,0.00,VWS V13.01,2013-01-03 12:05:00,
2013-01-03 05:11:00,16.1,6.1,30.52,North,355,3.0,5.0,64,0.00,,---,0.00,VWS V13.01,2013-01-03 12:11:00,
2013-01-03 05:15:00,16.1,5.7,30.53,NW,304,1.0,10.0,63,0.00,,---,0.00,VWS V13.01,2013-01-03 12:15:00,
2013-01-03 05:16:00,16.1,5.7,30.53,NW,304,2.0,4.0,63,0.00,,---,0.00,VWS V13.01,2013-01-03 12:16:00,
2013-01-03 05:21:00,16.2,6.2,30.53,NW,304,2.0,6.0,64,0.00,,---,0.00,VWS V13.01,2013-01-03 12:21:00,
2013-01-03 05:26:00,16.2,6.2,30.53,NW,304,2.0,6.0,64,0.00,,---,0.00,VWS V13.01,2013-01-03 12:26:00,
2013-01-03 05:30:00,16.2,6.2,30.53,NW,316,3.0,7.0,64,0.00,,---,0.00,VWS V13.01,2013-01-03 12:30:00,
2013-01-03 05:31:00,16.2,6.2,30.53,NW,315,1.0,3.0,64,0.00,,---,0.00,VWS V13.01,2013-01-03 12:31:00,
2013-01-03 05:36:00,16.2,6.2,30.53,NNW,346,3.0,5.0,64,0.00,,---,0.00,VWS V13.01,2013-01-03 12:36:00,
2013-01-03 05:41:00,16.2,6.2,30.53,NNW,342,3.0,5.0,64,0.00,,---,0.00,VWS V13.01,2013-01-03 12:41:00,
2013-01-03 05:45:00,16.3,6.3,30.53,NNW,340,4.0,6.0,64,0.00,,---,0.00,VWS V13.01,2013-01-03 12:45:00,
2013-01-03 05:46:00,16.3,6.3,30.53,NNW,340,5.0,5.0,64,0.00,,---,0.00,VWS V13.01,2013-01-03 12:46:00,
2013-01-03 05:51:00,16.3,6.3,30.53,NNW,340,2.0,7.0,64,0.00,,---,0.00,VWS V13.01,2013-01-03 12:51:00,
2013-01-03 05:56:00,16.2,6.5,30.53,NNE,30,2.0,7.0,65,0.00,,---,0.00,VWS V13.01,2013-01-03 12:56:00,
2013-01-03 06:00:00,16.1,6.4,30.54,NNW,342,2.0,9.0,65,0.00,,---,0.00,VWS V13.01,2013-01-03 13:00:00,
2013-01-03 06:01:00,16.1,6.4,30.55,NNW,346,3.0,13.0,65,0.00,,---,0.00,VWS V13.01,2013-01-03 13:01:00,
2013-01-03 06:06:00,16.1,6.4,30.55,NNW,331,2.0,13.0,65,0.00,,---,0.00,VWS V13.01,2013-01-03 13:06:00,
2013-01-03 06:11:00,16.0,6.3,30.56,NNW,346,3.0,13.0,65,0.00,,---,0.00,VWS V13.01,2013-01-03 13:11:00,
2013-01-03 06:15:00,15.8,6.1,30.56,NNW,348,3.0,13.0,65,0.00,,---,0.00,VWS V13.01,2013-01-03 13:15:00,
2013-01-03 06:16:00,15.8,6.5,30.56,North,349,2.0,4.0,66,0.00,,---,0.00,VWS V13.01,2013-01-03 13:16:00,
2013-01-03 06:21:00,15.7,6.4,30.55,NNW,348,4.0,6.0,66,0.00,,---,0.00,VWS V13.01,2013-01-03 13:21:00,
2013-01-03 06:26:00,15.7,6.0,30.56,North,5,2.0,6.0,65,0.00,,---,0.00,VWS V13.01,2013-01-03 13:26:00,
2013-01-03 06:30:00,15.8,6.1,30.56,North,11,3.0,7.0,65,0.00,,---,0.00,VWS V13.01,2013-01-03 13:30:00,
2013-01-03 06:31:00,15.8,6.1,30.56,North,11,1.0,5.0,65,0.00,,---,0.00,VWS V13.01,2013-01-03 13:31:00,
2013-01-03 06:36:00,15.9,5.9,30.56,NNE,17,4.0,10.0,64,0.00,,---,0.00,VWS V13.01,2013-01-03 13:36:00,
2013-01-03 06:41:00,15.9,5.9,30.56,North,355,5.0,10.0,64,0.00,,---,0.00,VWS V13.01,2013-01-03 13:41:00,
2013-01-03 06:45:00,15.8,5.4,30.56,North,355,5.0,10.0,63,0.00,,---,0.00,VWS V13.01,2013-01-03 13:45:00,
2013-01-03 06:46:00,15.8,5.4,30.56,NNE,16,5.0,9.0,63,0.00,,---,0.00,VWS V13.01,2013-01-03 13:46:00,
2013-01-03 06:51:00,15.7,5.0,30.56,NNW,331,6.0,12.0,62,0.00,,---,0.00,VWS V13.01,2013-01-03 13:51:00,
2013-01-03 06:56:00,15.7,5.0,30.56,NNW,332,5.0,12.0,62,0.00,,---,0.00,VWS V13.01,2013-01-03 13:56:00,
2013-01-03 07:00:00,15.7,5.0,30.56,NW,310,3.0,12.0,62,0.00,,---,0.00,VWS V13.01,2013-01-03 14:00:00,
2013-01-03 07:01:00,15.7,4.7,30.57,NW,311,2.0,5.0,61,0.00,,---,0.00,VWS V13.01,2013-01-03 14:01:00,
2013-01-03 07:06:00,15.6,4.6,30.57,NW,325,7.0,10.0,61,0.00,,---,0.00,VWS V13.01,2013-01-03 14:06:00,
2013-01-03 07:11:00,15.4,4.4,30.58,NW,325,5.0,10.0,61,0.00,,---,0.00,VWS V13.01,2013-01-03 14:11:00,
2013-01-03 07:15:00,15.2,4.2,30.58,NNW,327,3.0,10.0,61,0.00,,---,0.00,VWS V13.01,2013-01-03 14:15:00,
2013-01-03 07:16:00,15.2,4.2,30.59,NNW,327,4.0,5.0,61,0.00,,---,0.00,VWS V13.01,2013-01-03 14:16:00,
2013-01-03 07:21:00,15.2,4.2,30.59,NNW,329,3.0,8.0,61,0.00,,---,0.00,VWS V13.01,2013-01-03 14:21:00,
2013-01-03 07:26:00,15.2,4.2,30.59,NNW,327,4.0,8.0,61,0.00,,---,0.00,VWS V13.01,2013-01-03 14:26:00,
2013-01-03 07:30:00,15.4,4.4,30.59,NNW,328,3.0,8.0,61,0.00,,---,0.00,VWS V13.01,2013-01-03 14:30:00,
2013-01-03 07:31:00,15.4,4.4,30.59,NNW,327,3.0,4.0,61,0.00,,---,0.00,VWS V13.01,2013-01-03 14:31:00,
2013-01-03 07:36:00,15.8,4.8,30.58,NNW,329,5.0,7.0,61,0.00,,---,0.00,VWS V13.01,2013-01-03 14:36:00,
2013-01-03 07:41:00,16.4,5.3,30.58,NNW,329,4.0,7.0,61,0.00,,---,0.00,VWS V13.01,2013-01-03 14:41:00,
2013-01-03 07:45:00,16.8,5.0,30.58,North,355,6.0,12.0,59,0.00,,---,0.00,VWS V13.01,2013-01-03 14:45:00,
2013-01-03 07:46:00,16.9,4.7,30.58,NW,326,4.0,10.0,58,0.00,,---,0.00,VWS V13.01,2013-01-03 14:46:00,
2013-01-03 07:51:00,17.1,4.9,30.58,NNW,335,3.0,10.0,58,0.00,,---,0.00,VWS V13.01,2013-01-03 14:51:00,
2013-01-03 07:56:00,17.2,4.6,30.58,NNW,329,4.0,10.0,57,0.00,,---,0.00,VWS V13.01,2013-01-03 14:56:00,
2013-01-03 08:00:00,17.4,4.8,30.58,NNW,327,5.0,10.0,57,0.00,,---,0.00,VWS V13.01,2013-01-03 15:00:00,
2013-01-03 08:01:00,17.5,4.5,30.58,NNW,327,5.0,9.0,56,0.00,,---,0.00,VWS V13.01,2013-01-03 15:01:00,
2013-01-03 08:06:00,18.0,5.0,30.58,NNW,327,5.0,9.0,56,0.00,,---,0.00,VWS V13.01,2013-01-03 15:06:00,
2013-01-03 08:11:00,18.3,4.8,30.59,NNE,17,5.0,12.0,55,0.00,,---,0.00,VWS V13.01,2013-01-03 15:11:00,
2013-01-03 08:15:00,18.5,4.6,30.58,North,360,9.0,12.0,54,0.00,,---,0.00,VWS V13.01,2013-01-03 15:15:00,
2013-01-03 08:16:00,18.7,4.8,30.58,NNE,28,7.0,9.0,54,0.00,,---,0.00,VWS V13.01,2013-01-03 15:16:00,
2013-01-03 08:21:00,19.2,4.9,30.58,NE,36,8.0,11.0,53,0.00,,---,0.00,VWS V13.01,2013-01-03 15:21:00,
2013-01-03 08:26:00,19.7,5.3,30.58,North,355,6.0,12.0,53,0.00,,---,0.00,VWS V13.01,2013-01-03 15:26:00,
2013-01-03 08:30:00,19.9,5.5,30.58,NE,44,5.0,16.0,53,0.00,,---,0.00,VWS V13.01,2013-01-03 15:30:00,
2013-01-03 08:31:00,20.0,5.2,30.58,NE,47,3.0,9.0,52,0.00,,---,0.00,VWS V13.01,2013-01-03 15:31:00,
2013-01-03 08:36:00,20.5,5.7,30.57,NNE,14,5.0,12.0,52,0.00,,---,0.00,VWS V13.01,2013-01-03 15:36:00,
2013-01-03 08:41:00,20.9,5.6,30.57,NNE,21,10.0,14.0,51,0.00,,---,0.00,VWS V13.01,2013-01-03 15:41:00,
2013-01-03 08:45:00,21.2,5.9,30.57,NNE,23,7.0,14.0,51,0.00,,---,0.00,VWS V13.01,2013-01-03 15:45:00,
2013-01-03 08:46:00,21.4,6.1,30.57,NE,49,10.0,10.0,51,0.00,,---,0.00,VWS V13.01,2013-01-03 15:46:00,
2013-01-03 08:51:00,21.6,5.8,30.58,NE,49,10.0,12.0,50,0.00,,---,0.00,VWS V13.01,2013-01-03 15:51:00,
2013-01-03 08:56:00,21.7,5.5,30.57,NE,39,5.0,12.0,49,0.00,,---,0.00,VWS V13.01,2013-01-03 15:56:00,
2013-01-03 09:00:00,21.9,5.7,30.57,NE,36,4.0,12.0,49,0.00,,---,0.00,VWS V13.01,2013-01-03 16:00:00,
2013-01-03 09:01:00,22.0,5.8,30.58,NNE,15,7.0,11.0,49,0.00,,---,0.00,VWS V13.01,2013-01-03 16:01:00,
2013-01-03 09:06:00,22.2,5.5,30.59,NE,40,11.0,13.0,48,0.00,,---,0.00,VWS V13.01,2013-01-03 16:06:00,
2013-01-03 09:11:00,22.4,5.7,30.59,ENE,70,9.0,13.0,48,0.00,,---,0.00,VWS V13.01,2013-01-03 16:11:00,
2013-01-03 09:15:00,22.5,5.3,30.59,NE,40,5.0,13.0,47,0.00,,---,0.00,VWS V13.01,2013-01-03 16:15:00,
2013-01-03 09:16:00,22.4,5.2,30.58,NNE,21,8.0,14.0,47,0.00,,---,0.00,VWS V13.01,2013-01-03 16:16:00,
2013-01-03 09:21:00,22.4,5.2,30.59,NNE,32,6.0,14.0,47,0.00,,---,0.00,VWS V13.01,2013-01-03 16:21:00,
2013-01-03 09:26:00,22.9,5.2,30.59,North,355,5.0,14.0,46,0.00,,---,0.00,VWS V13.01,2013-01-03 16:26:00,
2013-01-03 09:30:00,23.0,5.3,30.59,NNE,24,11.0,14.0,46,0.00,,---,0.00,VWS V13.01,2013-01-03 16:30:00,
2013-01-03 09:31:00,23.0,5.3,30.59,NNE,30,3.0,12.0,46,0.00,,---,0.00,VWS V13.01,2013-01-03 16:31:00,
2013-01-03 09:36:00,23.5,5.8,30.58,ENE,71,11.0,12.0,46,0.00,,---,0.00,VWS V13.01,2013-01-03 16:36:00,
2013-01-03 09:41:00,23.9,5.7,30.58,NE,34,9.0,14.0,45,0.00,,---,0.00,VWS V13.01,2013-01-03 16:41:00,
2013-01-03 09:45:00,23.9,5.7,30.58,NE,36,7.0,14.0,45,0.00,,---,0.00,VWS V13.01,2013-01-03 16:45:00,
2013-01-03 09:46:00,23.8,5.6,30.58,NNE,22,7.0,11.0,45,0.00,,---,0.00,VWS V13.01,2013-01-03 16:46:00,
2013-01-03 09:51:00,24.1,5.8,30.58,NE,38,3.0,14.0,45,0.00,,---,0.00,VWS V13.01,2013-01-03 16:51:00,
2013-01-03 09:56:00,24.2,5.4,30.58,ENE,63,12.0,15.0,44,0.00,,---,0.00,VWS V13.01,2013-01-03 16:56:00,
2013-01-03 10:00:00,24.3,6.0,30.59,North,11,7.0,16.0,45,0.00,,---,0.00,VWS V13.01,2013-01-03 17:00:00,
2013-01-03 10:01:00,24.4,6.1,30.59,NNE,29,9.0,15.0,45,0.00,,---,0.00,VWS V13.01,2013-01-03 17:01:00,
2013-01-03 10:06:00,24.7,5.9,30.58,NE,35,10.0,15.0,44,0.00,,---,0.00,VWS V13.01,2013-01-03 17:06:00,
2013-01-03 10:11:00,24.7,5.9,30.58,ENE,69,13.0,17.0,44,0.00,,---,0.00,VWS V13.01,2013-01-03 17:11:00,
2013-01-03 10:15:00,24.7,5.9,30.58,NE,43,4.0,17.0,44,0.00,,---,0.00,VWS V13.01,2013-01-03 17:15:00,
2013-01-03 10:16:00,25.0,6.7,30.58,NE,35,6.0,13.0,45,0.00,,---,0.00,VWS V13.01,2013-01-03 17:16:00,
2013-01-03 10:21:00,25.6,6.7,30.57,NE,56,6.0,14.0,44,0.00,,---,0.00,VWS V13.01,2013-01-03 17:21:00,
2013-01-03 10:26:00,25.7,6.8,30.57,ENE,61,10.0,17.0,44,0.00,,---,0.00,VWS V13.01,2013-01-03 17:26:00,
2013-01-03 10:30:00,25.7,6.8,30.56,NNE,26,9.0,17.0,44,0.00,,---,0.00,VWS V13.01,2013-01-03 17:30:00,
2013-01-03 10:31:00,25.8,6.9,30.56,NE,46,9.0,13.0,44,0.00,,---,0.00,VWS V13.01,2013-01-03 17:31:00,
2013-01-03 10:36:00,26.2,7.3,30.56,ENE,64,11.0,14.0,44,0.00,,---,0.00,VWS V13.01,2013-01-03 17:36:00,
2013-01-03 10:41:00,25.9,7.0,30.56,ENE,57,7.0,16.0,44,0.00,,---,0.00,VWS V13.01,2013-01-03 17:41:00,
2013-01-03 10:45:00,26.0,7.1,30.56,NE,46,11.0,16.0,44,0.00,,---,0.00,VWS V13.01,2013-01-03 17:45:00,
2013-01-03 10:46:00,26.2,7.3,30.56,NE,38,6.0,11.0,44,0.00,,---,0.00,VWS V13.01,2013-01-03 17:46:00,
2013-01-03 10:51:00,26.9,7.9,30.56,ENE,65,9.0,13.0,44,0.00,,---,0.00,VWS V13.01,2013-01-03 17:51:00,
2013-01-03 10:57:00,27.4,7.9,30.55,ENE,59,10.0,14.0,43,0.00,,---,0.00,VWS V13.01,2013-01-03 17:57:00,
2013-01-03 11:00:00,27.6,8.0,30.54,ENE,72,6.0,14.0,43,0.00,,---,0.00,VWS V13.01,2013-01-03 18:00:00,
2013-01-03 11:02:00,27.8,8.2,30.54,NE,42,10.0,13.0,43,0.00,,---,0.00,VWS V13.01,2013-01-03 18:02:00,
2013-01-03 11:07:00,27.8,8.2,30.53,NE,38,10.0,13.0,43,0.00,,---,0.00,VWS V13.01,2013-01-03 18:07:00,
2013-01-03 11:12:00,27.6,7.5,30.53,ENE,67,9.0,13.0,42,0.00,,---,0.00,VWS V13.01,2013-01-03 18:12:00,
2013-01-03 11:15:00,27.4,7.9,30.54,ENE,60,8.0,14.0,43,0.00,,---,0.00,VWS V13.01,2013-01-03 18:15:00,
2013-01-03 11:17:00,27.5,9.9,30.54,NE,51,7.0,9.0,47,0.00,,---,0.00,VWS V13.01,2013-01-03 18:17:00,
2013-01-03 11:22:00,27.8,8.2,30.52,NE,56,5.0,11.0,43,0.00,,---,0.00,VWS V13.01,2013-01-03 18:22:00,
2013-01-03 11:27:00,27.6,8.0,30.52,ENE,64,7.0,11.0,43,0.00,,---,0.00,VWS V13.01,2013-01-03 18:27:00,
2013-01-03 11:30:00,27.6,8.0,30.52,ENE,71,6.0,13.0,43,0.00,,---,0.00,VWS V13.01,2013-01-03 18:30:00,
2013-01-03 11:32:00,28.0,8.4,30.52,ENE,75,7.0,11.0,43,0.00,,---,0.00,VWS V13.01,2013-01-03 18:32:00,
2013-01-03 11:37:00,28.3,8.7,30.52,ENE,61,6.0,12.0,43,0.00,,---,0.00,VWS V13.01,2013-01-03 18:37:00,
2013-01-03 11:42:00,28.6,8.9,30.51,NE,53,4.0,12.0,43,0.00,,---,0.00,VWS V13.01,2013-01-03 18:42:00,
2013-01-03 11:45:00,28.6,8.9,30.51,East,82,1.0,12.0,43,0.00,,---,0.00,VWS V13.01,2013-01-03 18:45:00,
2013-01-03 11:47:00,28.7,9.1,30.51,NE,37,5.0,7.0,43,0.00,,---,0.00,VWS V13.01,2013-01-03 18:47:00,
2013-01-03 11:52:00,29.0,8.8,30.51,NE,51,4.0,10.0,42,0.00,,---,0.00,VWS V13.01,2013-01-03 18:52:00,
2013-01-03 11:57:00,29.0,8.8,30.50,ENE,75,5.0,10.0,42,0.00,,---,0.00,VWS V13.01,2013-01-03 18:57:00,
2013-01-03 12:00:00,28.9,8.7,30.50,ENE,76,5.0,10.0,42,0.00,,---,0.00,VWS V13.01,2013-01-03 19:00:00,
2013-01-03 12:02:00,29.0,9.3,30.50,ENE,72,3.0,7.0,43,0.00,,---,0.00,VWS V13.01,2013-01-03 19:02:00,
2013-01-03 12:07:00,29.7,10.0,30.48,NNW,329,3.0,7.0,43,0.00,,---,0.00,VWS V13.01,2013-01-03 19:07:00,
2013-01-03 12:43:00,30.4,10.1,30.47,NNW,329,4.0,10.0,42,0.00,,---,0.00,VWS V13.01,2013-01-03 19:43:00,
2013-01-03 12:45:00,30.4,10.1,30.47,NNW,329,5.0,10.0,42,0.00,,---,0.00,VWS V13.01,2013-01-03 19:45:00,
2013-01-03 12:48:00,30.5,10.2,30.47,NNW,329,0.0,5.0,42,0.00,,---,0.00,VWS V13.01,2013-01-03 19:48:00,
2013-01-03 12:53:00,31.2,10.8,30.47,NNW,330,3.0,6.0,42,0.00,,---,0.00,VWS V13.01,2013-01-03 19:53:00,
2013-01-03 12:58:00,31.7,10.7,30.45,NNW,327,4.0,6.0,41,0.00,,---,0.00,VWS V13.01,2013-01-03 19:58:00,
2013-01-03 13:00:00,31.8,10.8,30.45,NNW,327,1.0,6.0,41,0.00,,---,0.00,VWS V13.01,2013-01-03 20:00:00,
2013-01-03 13:03:00,31.6,10.6,30.45,North,360,5.0,10.0,41,0.00,,---,0.00,VWS V13.01,2013-01-03 20:03:00,
2013-01-03 13:08:00,31.9,10.9,30.45,NE,44,0.0,10.0,41,0.00,,---,0.00,VWS V13.01,2013-01-03 20:08:00,
2013-01-03 13:13:00,32.2,11.2,30.45,WNW,300,4.0,10.0,41,0.00,,---,0.00,VWS V13.01,2013-01-03 20:13:00,
2013-01-03 13:15:00,32.2,11.2,30.44,WNW,299,2.0,10.0,41,0.00,,---,0.00,VWS V13.01,2013-01-03 20:15:00,
2013-01-03 13:18:00,32.1,11.1,30.44,WNW,300,0.0,6.0,41,0.00,,---,0.00,VWS V13.01,2013-01-03 20:18:00,
2013-01-03 13:23:00,32.6,12.1,30.44,WNW,300,1.0,6.0,42,0.00,,---,0.00,VWS V13.01,2013-01-03 20:23:00,
2013-01-03 13:28:00,33.3,11.6,30.44,NE,48,2.0,9.0,40,0.00,,---,0.00,VWS V13.01,2013-01-03 20:28:00,
2013-01-03 13:30:00,33.4,11.7,30.44,North,360,2.0,9.0,40,0.00,,---,0.00,VWS V13.01,2013-01-03 20:30:00,
2013-01-03 13:33:00,33.7,12.0,30.43,NNE,19,0.0,6.0,40,0.00,,---,0.00,VWS V13.01,2013-01-03 20:33:00,
2013-01-03 13:38:00,33.4,11.7,30.43,ENE,65,5.0,10.0,40,0.00,,---,0.00,VWS V13.01,2013-01-03 20:38:00,
2013-01-03 13:43:00,33.3,12.2,30.44,ENE,60,9.0,14.0,41,0.00,,---,0.00,VWS V13.01,2013-01-03 20:43:00,
2013-01-03 13:45:00,33.2,12.1,30.43,East,96,7.0,14.0,41,0.00,,---,0.00,VWS V13.01,2013-01-03 20:45:00,
2013-01-03 13:48:00,32.8,12.2,30.44,NE,45,4.0,11.0,42,0.00,,---,0.00,VWS V13.01,2013-01-03 20:48:00,
2013-01-03 13:53:00,33.0,12.4,30.44,East,90,4.0,11.0,42,0.00,,---,0.00,VWS V13.01,2013-01-03 20:53:00,
2013-01-03 13:58:00,32.9,12.3,30.44,NE,45,3.0,11.0,42,0.00,,---,0.00,VWS V13.01,2013-01-03 20:58:00,
2013-01-03 14:00:00,33.1,12.5,30.44,NNE,18,6.0,11.0,42,0.00,,---,0.00,VWS V13.01,2013-01-03 21:00:00,
2013-01-03 14:03:00,33.7,13.1,30.43,NNE,19,6.0,7.0,42,0.00,,---,0.00,VWS V13.01,2013-01-03 21:03:00,
2013-01-03 14:08:00,34.1,12.9,30.44,NNE,32,6.0,9.0,41,0.00,,---,0.00,VWS V13.01,2013-01-03 21:08:00,
2013-01-03 14:14:00,33.9,12.7,30.43,NNE,26,6.0,13.0,41,0.00,,---,0.00,VWS V13.01,2013-01-03 21:14:00,
2013-01-03 14:15:00,33.9,12.7,30.43,NNE,30,6.0,13.0,41,0.00,,---,0.00,VWS V13.01,2013-01-03 21:15:00,
2013-01-03 14:19:00,33.5,12.9,30.43,NNE,26,6.0,13.0,42,0.00,,---,0.00,VWS V13.01,2013-01-03 21:19:00,
2013-01-03 14:24:00,33.7,13.1,30.43,North,355,5.0,16.0,42,0.00,,---,0.00,VWS V13.01,2013-01-03 21:24:00,
2013-01-03 14:29:00,33.8,13.1,30.43,NE,55,11.0,16.0,42,0.00,,---,0.00,VWS V13.01,2013-01-03 21:29:00,
2013-01-03 14:34:00,34.0,13.3,30.43,NNW,333,7.0,12.0,42,0.00,,---,0.00,VWS V13.01,2013-01-03 21:34:00,
2013-01-03 14:39:00,34.3,13.1,30.43,NE,44,5.0,12.0,41,0.00,,---,0.00,VWS V13.01,2013-01-03 21:39:00,
2013-01-03 14:44:00,33.9,12.7,30.43,NE,40,5.0,12.0,41,0.00,,---,0.00,VWS V13.01,2013-01-03 21:44:00,
2013-01-03 14:45:00,33.9,12.7,30.43,NE,45,10.0,12.0,41,0.00,,---,0.00,VWS V13.01,2013-01-03 21:45:00,
2013-01-03 14:49:00,33.8,12.6,30.43,NE,54,6.0,15.0,41,0.00,,---,0.00,VWS V13.01,2013-01-03 21:49:00,
2013-01-03 14:54:00,33.8,13.1,30.43,NNE,30,8.0,15.0,42,0.00,,---,0.00,VWS V13.01,2013-01-03 21:54:00,
2013-01-03 14:59:00,33.9,12.7,30.43,ENE,65,7.0,15.0,41,0.00,,---,0.00,VWS V13.01,2013-01-03 21:59:00,
2013-01-03 15:00:00,33.9,12.7,30.43,ENE,64,5.0,15.0,41,0.00,,---,0.00,VWS V13.01,2013-01-03 22:00:00,
2013-01-03 15:04:00,33.7,13.1,30.44,NE,36,5.0,15.0,42,0.00,,---,0.00,VWS V13.01,2013-01-03 22:04:00,
2013-01-03 15:09:00,34.1,12.9,30.44,NE,53,8.0,15.0,41,0.00,,---,0.00,VWS V13.01,2013-01-03 22:09:00,
2013-01-03 15:14:00,33.8,12.6,30.44,ENE,64,5.0,15.0,41,0.00,,---,0.00,VWS V13.01,2013-01-03 22:14:00,
2013-01-03 15:15:00,33.8,12.6,30.44,ENE,77,7.0,15.0,41,0.00,,---,0.00,VWS V13.01,2013-01-03 22:15:00,
2013-01-03 15:19:00,33.5,12.9,30.44,ENE,67,6.0,11.0,42,0.00,,---,0.00,VWS V13.01,2013-01-03 22:19:00,
2013-01-03 15:24:00,33.7,12.5,30.44,ENE,57,6.0,11.0,41,0.00,,---,0.00,VWS V13.01,2013-01-03 22:24:00,
2013-01-03 15:29:00,33.4,12.8,30.44,ENE,67,6.0,11.0,42,0.00,,---,0.00,VWS V13.01,2013-01-03 22:29:00,
2013-01-03 15:30:00,33.4,12.2,30.44,ENE,67,5.0,11.0,41,0.00,,---,0.00,VWS V13.01,2013-01-03 22:30:00,
2013-01-03 15:34:00,33.2,12.6,30.44,ENE,69,10.0,12.0,42,0.00,,---,0.00,VWS V13.01,2013-01-03 22:34:00,
2013-01-03 15:39:00,33.3,12.7,30.44,NE,45,4.0,12.0,42,0.00,,---,0.00,VWS V13.01,2013-01-03 22:39:00,
2013-01-03 15:44:00,33.4,12.8,30.44,ENE,75,9.0,12.0,42,0.00,,---,0.00,VWS V13.01,2013-01-03 22:44:00,
2013-01-03 15:45:00,33.3,12.7,30.44,NE,44,5.0,12.0,42,0.00,,---,0.00,VWS V13.01,2013-01-03 22:45:00,
2013-01-03 15:49:00,33.2,12.6,30.44,NE,34,6.0,10.0,42,0.00,,---,0.00,VWS V13.01,2013-01-03 22:49:00,
2013-01-03 15:54:00,33.2,12.6,30.44,NE,34,6.0,13.0,42,0.00,,---,0.00,VWS V13.01,2013-01-03 22:54:00,
2013-01-03 15:59:00,33.1,13.1,30.43,NNE,30,6.0,13.0,43,0.00,,---,0.00,VWS V13.01,2013-01-03 22:59:00,
2013-01-03 16:00:00,33.0,13.0,30.43,NNE,31,4.0,13.0,43,0.00,,---,0.00,VWS V13.01,2013-01-03 23:00:00,
2013-01-03 16:04:00,32.8,12.8,30.45,NE,56,10.0,13.0,43,0.00,,---,0.00,VWS V13.01,2013-01-03 23:04:00,
2013-01-03 16:09:00,32.5,12.5,30.45,NE,49,4.0,13.0,43,0.00,,---,0.00,VWS V13.01,2013-01-03 23:09:00,
2013-01-03 16:14:00,32.3,12.8,30.45,NE,53,6.0,13.0,44,0.00,,---,0.00,VWS V13.01,2013-01-03 23:14:00,
2013-01-03 16:15:00,32.2,12.8,30.45,NE,53,6.0,13.0,44,0.00,,---,0.00,VWS V13.01,2013-01-03 23:15:00,
2013-01-03 16:19:00,32.1,12.7,30.45,NE,52,5.0,9.0,44,0.00,,---,0.00,VWS V13.01,2013-01-03 23:19:00,
2013-01-03 16:24:00,32.0,12.6,30.45,NNE,26,3.0,9.0,44,0.00,,---,0.00,VWS V13.01,2013-01-03 23:24:00,
2013-01-03 16:29:00,31.8,12.9,30.45,ENE,64,4.0,9.0,45,0.00,,---,0.00,VWS V13.01,2013-01-03 23:29:00,
2013-01-03 16:30:00,31.7,12.8,30.45,ENE,65,5.0,9.0,45,0.00,,---,0.00,VWS V13.01,2013-01-03 23:30:00,
2013-01-03 16:34:00,31.5,12.6,30.45,ENE,61,2.0,7.0,45,0.00,,---,0.00,VWS V13.01,2013-01-03 23:34:00,
2013-01-03 16:39:00,31.4,12.5,30.46,ENE,60,2.0,7.0,45,0.00,,---,0.00,VWS V13.01,2013-01-03 23:39:00,
2013-01-03 16:44:00,31.1,12.8,30.46,ENE,57,2.0,7.0,46,0.00,,---,0.00,VWS V13.01,2013-01-03 23:44:00,
2013-01-03 16:45:00,31.1,12.8,30.46,ENE,57,2.0,7.0,46,0.00,,---,0.00,VWS V13.01,2013-01-03 23:45:00,
2013-01-03 16:49:00,30.8,12.5,30.46,NE,55,3.0,6.0,46,0.00,,---,0.00,VWS V13.01,2013-01-03 23:49:00,
2013-01-03 16:54:00,30.6,12.3,30.46,NE,55,3.0,6.0,46,0.00,,---,0.00,VWS V13.01,2013-01-03 23:54:00,
2013-01-03 16:59:00,30.2,12.4,30.47,NE,55,2.0,6.0,47,0.00,,---,0.00,VWS V13.01,2013-01-03 23:59:00,
2013-01-03 17:00:00,30.2,12.4,30.47,NE,55,0.0,6.0,47,0.00,,---,0.00,VWS V13.01,2013-01-04 00:00:00,
2013-01-03 17:04:00,29.9,12.1,30.47,NE,55,0.0,4.0,47,0.00,,---,0.00,VWS V13.01,2013-01-04 00:04:00,
2013-01-03 17:09:00,29.6,12.3,30.47,NE,55,2.0,4.0,48,0.00,,---,0.00,VWS V13.01,2013-01-04 00:09:00,
2013-01-03 17:14:00,29.3,12.1,30.48,NE,55,2.0,5.0,48,0.00,,---,0.00,VWS V13.01,2013-01-04 00:14:00,
2013-01-03 17:15:00,29.3,12.1,30.48,NE,55,0.0,5.0,48,0.00,,---,0.00,VWS V13.01,2013-01-04 00:15:00,
2013-01-03 17:19:00,29.0,12.2,30.48,NE,54,2.0,4.0,49,0.00,,---,0.00,VWS V13.01,2013-01-04 00:19:00,
2013-01-03 17:24:00,28.8,12.1,30.48,NE,50,3.0,6.0,49,0.00,,---,0.00,VWS V13.01,2013-01-04 00:24:00,
2013-01-03 17:29:00,28.4,11.7,30.48,NE,48,2.0,6.0,49,0.00,,---,0.00,VWS V13.01,2013-01-04 00:29:00,
2013-01-03 17:30:00,28.4,11.7,30.48,NE,49,3.0,6.0,49,0.00,,---,0.00,VWS V13.01,2013-01-04 00:30:00,
2013-01-03 17:34:00,27.7,11.5,30.49,NNE,32,4.0,5.0,50,0.00,,---,0.00,VWS V13.01,2013-01-04 00:34:00,
2013-01-03 17:39:00,27.1,11.4,30.50,NNE,13,4.0,5.0,51,0.00,,---,0.00,VWS V13.01,2013-01-04 00:39:00,
2013-01-03 17:44:00,26.8,11.6,30.50,North,360,5.0,5.0,52,0.00,,---,0.00,VWS V13.01,2013-01-04 00:44:00,
2013-01-03 17:45:00,26.8,11.6,30.50,North,5,4.0,5.0,52,0.00,,---,0.00,VWS V13.01,2013-01-04 00:45:00,
2013-01-03 17:49:00,26.6,11.4,30.50,North,5,4.0,5.0,52,0.00,,---,0.00,VWS V13.01,2013-01-04 00:49:00,
2013-01-03 17:54:00,26.3,11.5,30.50,North,5,2.0,5.0,53,0.00,,---,0.00,VWS V13.01,2013-01-04 00:54:00,
2013-01-03 17:59:00,26.1,11.3,30.50,North,5,4.0,5.0,53,0.00,,---,0.00,VWS V13.01,2013-01-04 00:59:00,
2013-01-03 18:00:00,26.2,11.4,30.50,North,5,2.0,5.0,53,0.00,,---,0.00,VWS V13.01,2013-01-04 01:00:00,
2013-01-03 18:04:00,26.0,11.2,30.50,North,5,3.0,4.0,53,0.00,,---,0.00,VWS V13.01,2013-01-04 01:04:00,
2013-01-03 18:09:00,25.8,11.5,30.50,NNW,340,4.0,7.0,54,0.00,,---,0.00,VWS V13.01,2013-01-04 01:09:00,
2013-01-03 18:14:00,25.7,11.4,30.51,NNW,339,4.0,7.0,54,0.00,,---,0.00,VWS V13.01,2013-01-04 01:14:00,
2013-01-03 18:15:00,25.7,11.4,30.51,NNW,339,5.0,7.0,54,0.00,,---,0.00,VWS V13.01,2013-01-04 01:15:00,
2013-01-03 18:19:00,25.7,11.4,30.50,NNW,337,4.0,6.0,54,0.00,,---,0.00,VWS V13.01,2013-01-04 01:19:00,
2013-01-03 18:24:00,25.6,11.7,30.50,NNW,336,4.0,6.0,55,0.00,,---,0.00,VWS V13.01,2013-01-04 01:24:00,
2013-01-03 18:29:00,25.4,11.5,30.52,NNW,328,5.0,7.0,55,0.00,,---,0.00,VWS V13.01,2013-01-04 01:29:00,
2013-01-03 18:30:00,25.4,11.5,30.52,NNW,327,4.0,7.0,55,0.00,,---,0.00,VWS V13.01,2013-01-04 01:30:00,
2013-01-03 18:34:00,25.1,11.2,30.52,NNW,328,6.0,7.0,55,0.00,,---,0.00,VWS V13.01,2013-01-04 01:34:00,
2013-01-03 18:40:00,24.9,11.4,30.52,NW,323,6.0,9.0,56,0.00,,---,0.00,VWS V13.01,2013-01-04 01:40:00,
2013-01-03 18:45:00,24.8,11.3,30.52,NW,319,6.0,10.0,56,0.00,,---,0.00,VWS V13.01,2013-01-04 01:45:00,
2013-01-03 18:50:00,24.9,11.4,30.52,NW,321,6.0,10.0,56,0.00,,---,0.00,VWS V13.01,2013-01-04 01:50:00,
2013-01-03 18:55:00,25.0,11.5,30.52,NW,321,5.0,10.0,56,0.00,,---,0.00,VWS V13.01,2013-01-04 01:55:00,
2013-01-03 19:00:00,24.9,11.4,30.52,NW,321,7.0,10.0,56,0.00,,---,0.00,VWS V13.01,2013-01-04 02:00:00,
2013-01-03 19:05:00,24.9,11.4,30.52,NW,318,6.0,9.0,56,0.00,,---,0.00,VWS V13.01,2013-01-04 02:05:00,
2013-01-03 19:10:00,24.8,11.3,30.51,NW,317,5.0,9.0,56,0.00,,---,0.00,VWS V13.01,2013-01-04 02:10:00,
2013-01-03 19:15:00,24.4,10.6,30.53,NW,317,6.0,9.0,55,0.00,,---,0.00,VWS V13.01,2013-01-04 02:15:00,
2013-01-03 19:20:00,24.2,10.4,30.52,NW,317,2.0,7.0,55,0.00,,---,0.00,VWS V13.01,2013-01-04 02:20:00,
2013-01-03 19:25:00,24.0,10.2,30.52,NW,317,8.0,9.0,55,0.00,,---,0.00,VWS V13.01,2013-01-04 02:25:00,
2013-01-03 19:30:00,23.7,9.9,30.53,NW,318,5.0,10.0,55,0.00,,---,0.00,VWS V13.01,2013-01-04 02:30:00,
2013-01-03 19:35:00,23.4,10.0,30.53,NW,318,6.0,7.0,56,0.00,,---,0.00,VWS V13.01,2013-01-04 02:35:00,
2013-01-03 19:40:00,23.4,10.0,30.53,NW,318,3.0,9.0,56,0.00,,---,0.00,VWS V13.01,2013-01-04 02:40:00,
2013-01-03 19:45:00,23.4,10.0,30.53,NW,321,3.0,9.0,56,0.00,,---,0.00,VWS V13.01,2013-01-04 02:45:00,
2013-01-03 19:50:00,23.4,10.0,30.53,NW,325,3.0,6.0,56,0.00,,---,0.00,VWS V13.01,2013-01-04 02:50:00,
2013-01-03 19:55:00,23.4,10.4,30.53,NW,319,4.0,11.0,57,0.00,,---,0.00,VWS V13.01,2013-01-04 02:55:00,
2013-01-03 20:00:00,23.7,10.3,30.53,NW,315,11.0,12.0,56,0.00,,---,0.00,VWS V13.01,2013-01-04 03:00:00,
2013-01-03 20:05:00,23.6,10.2,30.49,NW,324,5.0,11.0,56,0.00,,---,0.00,VWS V13.01,2013-01-04 03:05:00,
2013-01-03 20:10:00,23.5,9.7,30.49,NNW,329,6.0,11.0,55,0.00,,---,0.00,VWS V13.01,2013-01-04 03:10:00,
2013-01-03 20:15:00,23.4,10.0,30.51,NW,325,9.0,11.0,56,0.00,,---,0.00,VWS V13.01,2013-01-04 03:15:00,
2013-01-03 20:20:00,23.3,9.5,30.51,NW,322,3.0,10.0,55,0.00,,---,0.00,VWS V13.01,2013-01-04 03:20:00,
2013-01-03 20:25:00,23.1,9.4,30.51,NW,322,0.0,10.0,55,0.00,,---,0.00,VWS V13.01,2013-01-04 03:25:00,
2013-01-03 20:30:00,22.8,9.1,30.51,NW,322,2.0,10.0,55,0.00,,---,0.00,VWS V13.01,2013-01-04 03:30:00,
2013-01-03 20:35:00,22.6,8.9,30.52,NW,323,0.0,4.0,55,0.00,,---,0.00,VWS V13.01,2013-01-04 03:35:00,
2013-01-03 20:40:00,22.7,8.6,30.52,NW,323,3.0,6.0,54,0.00,,---,0.00,VWS V13.01,2013-01-04 03:40:00,
2013-01-03 20:45:00,23.0,8.0,30.52,NW,323,4.0,7.0,52,0.00,,---,0.00,VWS V13.01,2013-01-04 03:45:00,
2013-01-03 20:50:00,23.2,7.8,30.52,NW,324,4.0,5.0,51,0.00,,---,0.00,VWS V13.01,2013-01-04 03:50:00,
2013-01-03 20:55:00,22.8,7.4,30.52,NW,323,3.0,6.0,51,0.00,,---,0.00,VWS V13.01,2013-01-04 03:55:00,
2013-01-03 21:00:00,22.3,6.9,30.52,NW,324,3.0,7.0,51,0.00,,---,0.00,VWS V13.01,2013-01-04 04:00:00,
2013-01-03 21:05:00,21.9,6.6,30.51,NW,324,0.0,4.0,51,0.00,,---,0.00,VWS V13.01,2013-01-04 04:05:00,
2013-01-03 21:10:00,21.3,6.4,30.52,NW,324,2.0,4.0,52,0.00,,---,0.00,VWS V13.01,2013-01-04 04:10:00,
2013-01-03 21:15:00,20.7,6.7,30.52,NW,323,0.0,4.0,54,0.00,,---,0.00,VWS V13.01,2013-01-04 04:15:00,
2013-01-03 21:20:00,20.4,6.0,30.52,NW,324,4.0,6.0,53,0.00,,---,0.00,VWS V13.01,2013-01-04 04:20:00,
2013-01-03 21:25:00,20.7,5.9,30.52,NW,323,4.0,6.0,52,0.00,,---,0.00,VWS V13.01,2013-01-04 04:25:00,
2013-01-03 21:30:00,21.2,5.9,30.53,NW,323,5.0,7.0,51,0.00,,---,0.00,VWS V13.01,2013-01-04 04:30:00,
2013-01-03 21:35:00,21.3,5.6,30.53,NNW,327,5.0,9.0,50,0.00,,---,0.00,VWS V13.01,2013-01-04 04:35:00,
2013-01-03 21:40:00,21.4,5.2,30.53,NW,321,7.0,12.0,49,0.00,,---,0.00,VWS V13.01,2013-01-04 04:40:00,
2013-01-03 21:45:00,21.6,5.4,30.51,NNW,328,3.0,12.0,49,0.00,,---,0.00,VWS V13.01,2013-01-04 04:45:00,
2013-01-03 21:50:00,21.6,5.4,30.51,NW,321,6.0,11.0,49,0.00,,---,0.00,VWS V13.01,2013-01-04 04:50:00,
2013-01-03 21:55:00,21.5,5.3,30.52,NW,321,3.0,11.0,49,0.00,,---,0.00,VWS V13.01,2013-01-04 04:55:00,
2013-01-03 22:00:00,21.5,5.3,30.52,NW,324,5.0,11.0,49,0.00,,---,0.00,VWS V13.01,2013-01-04 05:00:00,
2013-01-03 22:05:00,21.3,5.1,30.51,NNW,329,7.0,11.0,49,0.00,,---,0.00,VWS V13.01,2013-01-04 05:05:00,
2013-01-03 22:10:00,21.2,5.5,30.51,NW,321,7.0,11.0,50,0.00,,---,0.00,VWS V13.01,2013-01-04 05:10:00,
2013-01-03 22:15:00,21.0,5.3,30.50,NW,314,7.0,11.0,50,0.00,,---,0.00,VWS V13.01,2013-01-04 05:15:00,
2013-01-03 22:20:00,20.9,5.6,30.51,NW,321,9.0,9.0,51,0.00,,---,0.00,VWS V13.01,2013-01-04 05:20:00,
2013-01-03 22:25:00,20.2,5.4,30.50,NNW,327,6.0,12.0,52,0.00,,---,0.00,VWS V13.01,2013-01-04 05:25:00,
2013-01-03 22:30:00,19.7,5.3,30.51,NNW,330,9.0,12.0,53,0.00,,---,0.00,VWS V13.01,2013-01-04 05:30:00,
2013-01-03 22:35:00,19.7,5.8,30.51,NW,322,4.0,11.0,54,0.00,,---,0.00,VWS V13.01,2013-01-04 05:35:00,
2013-01-03 22:40:00,19.7,5.8,30.51,NNW,327,7.0,11.0,54,0.00,,---,0.00,VWS V13.01,2013-01-04 05:40:00,
2013-01-03 22:45:00,19.7,6.2,30.51,NW,323,9.0,11.0,55,0.00,,---,0.00,VWS V13.01,2013-01-04 05:45:00,
2013-01-03 22:50:00,19.7,6.2,30.51,NW,319,4.0,10.0,55,0.00,,---,0.00,VWS V13.01,2013-01-04 05:50:00,
2013-01-03 22:55:00,19.6,6.1,30.51,NW,325,7.0,10.0,55,0.00,,---,0.00,VWS V13.01,2013-01-04 05:55:00,
2013-01-03 23:00:00,19.3,5.8,30.52,NW,317,5.0,10.0,55,0.00,,---,0.00,VWS V13.01,2013-01-04 06:00:00,
2013-01-03 23:05:00,19.0,5.9,30.51,NW,323,4.0,9.0,56,0.00,,---,0.00,VWS V13.01,2013-01-04 06:05:00,
2013-01-03 23:11:00,18.8,5.7,30.51,NW,323,4.0,9.0,56,0.00,,---,0.00,VWS V13.01,2013-01-04 06:11:00,
2013-01-03 23:15:00,18.8,6.1,30.51,NW,323,4.0,9.0,57,0.00,,---,0.00,VWS V13.01,2013-01-04 06:15:00,
2013-01-03 23:16:00,18.8,6.1,30.51,NW,322,3.0,5.0,57,0.00,,---,0.00,VWS V13.01,2013-01-04 06:16:00,
2013-01-03 23:21:00,18.6,5.9,30.51,NW,323,2.0,7.0,57,0.00,,---,0.00,VWS V13.01,2013-01-04 06:21:00,
2013-01-03 23:26:00,18.3,6.0,30.53,NW,322,3.0,7.0,58,0.00,,---,0.00,VWS V13.01,2013-01-04 06:26:00,
2013-01-03 23:30:00,18.2,5.9,30.53,NW,321,4.0,9.0,58,0.00,,---,0.00,VWS V13.01,2013-01-04 06:30:00,
2013-01-03 23:31:00,18.2,5.9,30.53,NW,323,5.0,7.0,58,0.00,,---,0.00,VWS V13.01,2013-01-04 06:31:00,
2013-01-03 23:36:00,18.0,5.7,30.52,NW,320,3.0,8.0,58,0.00,,---,0.00,VWS V13.01,2013-01-04 06:36:00,
2013-01-03 23:41:00,17.8,5.9,30.52,NW,321,5.0,8.0,59,0.00,,---,0.00,VWS V13.01,2013-01-04 06:41:00,
2013-01-03 23:45:00,17.7,5.8,30.52,NW,322,9.0,11.0,59,0.00,,---,0.00,VWS V13.01,2013-01-04 06:45:00,
2013-01-03 23:46:00,17.8,5.9,30.52,NW,321,6.0,9.0,59,0.00,,---,0.00,VWS V13.01,2013-01-04 06:46:00,
2013-01-03 23:51:00,18.0,5.7,30.53,NW,313,5.0,11.0,58,0.00,,---,0.00,VWS V13.01,2013-01-04 06:51:00,
2013-01-03 23:56:00,18.0,5.7,30.53,NW,326,4.0,11.0,58,0.00,,---,0.00,VWS V13.01,2013-01-04 06:56:00,